Regional Weather Roundup
Issued by NWS

Home | Current Version | Previous Version | Text Only | Print | Product List | Glossary On
Versions: 1 2 3 4 5 6 7 8 9 10 11 12 13 14 15 16 17 18 19 20 21 22 23 24 25 26 27 28 29 30 31 32 33 34 35 36 37 38 39 40 41 42 43 44 45 46 47 48 49 50
000
ASUS45 KBOU 311507
RWRCO

WEATHER ROUNDUP FOR COLORADO
NATIONAL WEATHER SERVICE DENVER/BOULDER CO
900 AM MDT THU JUL 31 2014

NOTE: "FAIR" INDICATES FEW OR NO CLOUDS BELOW 12000 FEET WITH NO
SIGNIFICANT WEATHER AND/OR OBSTRUCTIONS TO VISIBILITY.

COZ001>005-013-030-031-311600-
...NORTHWEST COLORADO...

CITY           SKY/WX    TMP DP  RH WIND       PRES   REMARKS
CRAIG          CLOUDY    57  54  89 NW6       30.32S
HAYDEN         CLOUDY    59  50  72 E3        30.33S
MEEKER         CLOUDY    60  54  80 CALM      30.33R
MOUNT WERNER   NOT AVBL
STEAMBOAT SPGS PTSUNNY   55  51  87 CALM      30.35R
WALDEN         SUNNY     54  45  71 CALM      30.42S
$$

COZ006>008-011-311600-
...WEST CENTRAL VALLEYS...

CITY           SKY/WX    TMP DP  RH WIND       PRES   REMARKS
GRAND JUNCTION SUNNY     69  56  62 CALM      30.21R
MONTROSE       SUNNY     68  54  60 NW3       30.28R
EAGLE          PTSUNNY   57  55  94 VRB5      30.36S
RIFLE          SUNNY     65  54  67 VRB3      30.26F
DELTA          SUNNY     69  55  62 CALM      30.25R
NUCLA          SUNNY     66  52  59 CALM      30.29S
$$

COZ017>023-064>068-311600-
...SOUTHWEST COLORADO...

CITY           SKY/WX    TMP DP  RH WIND       PRES   REMARKS
DURANGO        CLOUDY    64  54  69 E7        30.33S
CORTEZ         SUNNY     70  51  51 CALM      30.24S
PAGOSA SPRINGS CLOUDY    62  50  64 CALM      30.41R
TELLURIDE      PTSUNNY   57  48  72 CALM      30.45S
WOLF CREEK PAS NOT AVBL
$$

COZ009-010-012-014-032>034-037-058>063-311600-
...CENTRAL COLORADO...

CITY           SKY/WX    TMP DP  RH WIND       PRES   REMARKS
ASPEN          MOSUNNY   58  50  75 N5        30.38S
BUENA VISTA    PTSUNNY   56  50  80 SE3       30.42S
COPPER MTN     CLOUDY    48  43  81 W10       30.64S
BERTHOUD PASS  FOG       36  36 100 MISG      30.68R VSB<1/4
COTTONWOOD PAS LGT RAIN  52  50  93 CALM      30.51S VSB<1/4
GUNNISON       CLOUDY    57  48  72 NE3       30.40S
KREMMLING      CLOUDY    55  48  76 CALM      30.41R
LEADVILLE      LGT RAIN  49  45  86 CALM      30.50S
MONARCH PASS   FOG       45  45 100 SW9       30.74R VSB 1/2
SALIDA         NOT AVBL
SUNLIGHT       MOSUNNY   54  50  87 CALM      30.57S
WILKERSON PASS FOG       43  43 100 CALM      30.62S VSB<1/4
$$

COZ069>075-311600-
...SAN LUIS VALLEY/SANGRE DE CRISTO MOUNTAINS...

CITY           SKY/WX    TMP DP  RH WIND       PRES   REMARKS
ALAMOSA        CLOUDY    58  54  86 NE3       30.38S
LA VETA PASS   FOG       48  46  93 SW3       30.53R VSB 1/4
SAGUACHE       CLOUDY    59  52  77 CALM      30.41S
$$

COZ035-036-038>040-311600-
...NORTHERN COLORADO FRONT RANGE...

CITY           SKY/WX    TMP DP  RH WIND       PRES   REMARKS
DENVER INTL AP CLOUDY    61  55  81 CALM      30.31S
DMNS CITY PARK   N/A     60  57  89 N2        30.32S
AURORA         CLOUDY    58  56  91 S5        30.34R
FRONT RANGE AP PTSUNNY   63  57  82 SW6       30.33R
ERIE MUNI ARPT LGT RAIN  61  57  86 CALM      30.31S
BOULDER MUN AP CLOUDY    61  55  82 SW5       30.31S
CENTENNIAL     LGT RAIN  58  55  90 N5        30.34R FOG
BROOMFIELD     PTSUNNY   61  55  82 CALM      30.33S
FORT COLLINS   PTSUNNY   63  55  77 S3        30.31R
LONGMONT       CLOUDY    64  58  81 CALM      30.32S
$$

COZ041-046-047-076>085-087-088-311600-
...PIKES PEAK/PALMER DIVIDE AND SOUTHERN FOOTHILLS...

CITY           SKY/WX    TMP DP  RH WIND       PRES   REMARKS
COLO. SPRINGS  CLOUDY    57  54  89 SE7       30.36S FOG
A. F. ACADEMY  CLOUDY    55  55 100 CALM      30.37R
ELLICOTT       CLOUDY    57  54  88 S6        30.35R
FALCON         CLOUDY    55  53  92 S5        30.39S
FORT CARSON    CLOUDY    57  57 100 SE5       30.34S
LIMON          CLOUDY    60  57  89 S6        30.32S
MONUMENT HILL  CLOUDY    54  52  94 W3        30.38R
TRINIDAD       CLOUDY    62  55  77 E6        30.32R
$$

COZ042>045-048>051-090-091-311600-
...NORTHEAST COLORADO...

CITY           SKY/WX    TMP DP  RH WIND       PRES   REMARKS
GREELEY ARPT   NOT AVBL
AKRON          PTSUNNY   67  55  65 SW6       30.28R
BURLINGTON     PTSUNNY   69  55  60 W6        30.27S
WRAY             N/A     72  59  65 W5        30.23S
STERLING       PTSUNNY   70  63  78 SW7       30.24S
HOLYOKE        MOSUNNY   73  57  56 W5        30.22R
FORT MORGAN    PTSUNNY   66  58  76 W6        30.28S
$$

COZ086-089-092>099-311600-
...SOUTHEAST COLORADO...

CITY           SKY/WX    TMP DP  RH WIND       PRES   REMARKS
PUEBLO         CLOUDY    62  59  90 E6        30.29R
LA JUNTA       CLOUDY    63  60  90 E6        30.27S
LAMAR          CLOUDY    65  60  84 W3        30.25R
SPRINGFIELD      N/A     63  53  70 CALM      30.29R
$$



USA.gov is the U.S. government's official web portal to all federal, state and local government web resources and services.